Location: St. Louis
(38.6270°N, 90.1994°W)
Time: 02:00:17
(UTC-06:00)

Vanguard 2 - Pass Details

Date: 07 December 2021
Orbit: 553 x 2936 km, 32.9° (Epoch: 16 January)

Event Time Altitude Azimuth Distance (km) Brightness Sun altitude
Rises 14:56:23 0° 265° (W) 2,971 11.4 15.1°
Reaches altitude 10° 14:58:27 10° 258° (WSW) 2,206 11.0 14.8°
Maximum altitude 15:03:16 45° 186° (S) 1,248 9.4 14.1°
Drops below altitude 10° 15:10:45 10° 116° (ESE) 3,409 10.7 13.1°
Sets 15:14:42 0° 112° (ESE) 4,800 11.3 12.5°
